Total_Precipitation_Accumulation
0.03 0.07 0.16 0.34 0.97 1.16 0.98 0.58 0.43 0.35 0.34 0.37 0.44 0.43 0.42 0.49 0.61 1.03 0.54 0.17 0.07 0.04 0.06 0.18 0.31 0.29 0.26 0.27 0.29 0.30 0.33 0.34 0.36 0.35 0.31 0.29 0.29 0.30 0.30 0.36 0.39 0.41 0.41 0.39 0.43 0.48 0.52 0.56 0.59
0.06 0.09 0.22 0.57 1.00 1.04 0.90 0.46 0.35 0.32 0.29 0.40 0.46 0.39 0.33 0.36 0.26 0.23 0.23 0.18 0.08 0.03 0.04 0.07 0.21 0.24 0.22 0.24 0.27 0.26 0.27 0.26 0.28 0.28 0.28 0.28 0.30 0.32 0.35 0.37 0.38 0.42 0.42 0.45 0.51 0.54 0.47 0.44 0.49
0.08 0.13 0.36 0.74 0.63 0.58 0.56 0.32 0.29 0.35 0.43 0.61 0.71 0.48 0.38 0.46 0.30 0.17 0.14 0.11 0.09 0.05 0.04 0.09 0.18 0.20 0.19 0.20 0.25 0.24 0.21 0.23 0.25 0.25 0.26 0.28 0.31 0.34 0.36 0.39 0.43 0.49 0.56 0.57 0.58 0.52 0.42 0.40 0.44
0.08 0.17 0.39 0.46 0.27 0.24 0.31 0.23 0.29 0.39 0.67 0.79 0.82 0.65 0.49 0.44 0.31 0.21 0.12 0.09 0.09 0.07 0.05 0.11 0.18 0.19 0.19 0.19 0.20 0.21 0.21 0.24 0.27 0.30 0.29 0.29 0.31 0.37 0.42 0.44 0.47 0.47 0.56 0.56 0.58 0.48 0.44 0.41 0.45
0.07 0.21 0.44 0.32 0.14 0.13 0.16 0.14 0.20 0.33 0.58 0.78 0.80 0.84 0.73 0.58 0.44 0.29 0.17 0.10 0.07 0.06 0.07 0.10 0.19 0.21 0.22 0.21 0.22 0.22 0.21 0.21 0.24 0.28 0.28 0.31 0.38 0.43 0.50 0.52 0.50 0.43 0.50 0.51 0.51 0.52 0.51 0.51 0.52
0.13 0.23 0.35 0.25 0.14 0.10 0.12 0.12 0.21 0.40 0.61 0.77 0.93 1.01 0.82 0.58 0.43 0.31 0.22 0.20 0.21 0.08 0.07 0.12 0.20 0.24 0.24 0.25 0.26 0.26 0.24 0.23 0.24 0.27 0.32 0.37 0.43 0.44 0.47 0.54 0.55 0.47 0.47 0.45 0.48 0.49 0.49 0.53 0.57
0.10 0.17 0.22 0.18 0.14 0.10 0.10 0.16 0.26 0.41 0.52 0.82 1.09 1.13 0.84 0.70 0.54 0.38 0.38 0.35 0.60 0.31 0.18 0.17 0.18 0.23 0.26 0.30 0.30 0.30 0.26 0.26 0.28 0.32 0.33 0.34 0.36 0.39 0.45 0.55 0.55 0.50 0.48 0.44 0.48 0.46 0.47 0.54 0.55
0.07 0.08 0.12 0.12 0.07 0.06 0.09 0.16 0.26 0.39 0.66 0.93 0.95 1.02 1.00 0.74 0.65 0.62 0.65 0.61 0.73 0.58 0.36 0.29 0.29 0.35 0.35 0.34 0.32 0.34 0.29 0.28 0.29 0.33 0.32 0.37 0.38 0.42 0.50 0.56 0.59 0.54 0.54 0.50 0.53 0.53 0.54 0.59 0.59
0.04 0.08 0.12 0.10 0.04 0.06 0.12 0.21 0.28 0.34 0.55 0.73 0.81 0.77 0.61 0.58 0.73 0.82 0.87 0.90 0.95 0.91 0.77 0.67 0.57 0.50 0.55 0.49 0.41 0.48 0.45 0.44 0.47 0.52 0.55 0.69 0.88 0.83 0.91 0.80 0.80 0.71 0.74 0.78 0.79 0.79 0.76 0.78 0.71
0.03 0.07 0.06 0.03 0.02 0.04 0.10 0.19 0.32 0.41 0.70 1.06 1.09 1.12 0.78 0.80 0.95 1.01 1.00 0.96 1.11 1.22 1.14 1.12 0.92 0.71 0.65 0.60 0.77 1.00 0.94 0.96 1.05 1.14 1.13 1.33 1.39 1.41 1.13 1.15 1.22 1.20 1.28 1.30 1.36 1.47 1.25 1.01 0.86
0.01 0.02 0.01 0.01 0.01 0.01 0.05 0.11 0.15 0.35 0.77 1.21 1.27 1.23 1.03 1.01 1.12 1.23 1.28 1.41 1.53 1.69 1.46 1.25 1.23 1.14 1.13 1.16 1.16 1.23 1.41 1.52 1.63 1.71 1.69 1.88 1.61 1.47 1.36 1.53 1.72 1.68 1.61 1.51 1.76 1.95 1.60 1.53 1.66
0.01 0.01 0.01 0.01 0.01 0.01 0.04 0.11 0.21 0.36 0.79 1.07 0.98 0.86 0.89 1.10 1.29 1.47 1.82 2.05 2.24 2.35 2.26 2.14 1.90 1.73 1.73 1.58 1.40 1.34 1.37 1.46 1.55 1.67 1.73 1.90 1.99 1.89 1.91 2.05 1.88 1.85 1.89 2.07 2.04 2.24 2.10 1.94 1.82
0.00 0.00 0.01 0.01 0.01 0.02 0.06 0.16 0.29 0.42 0.69 0.67 0.59 0.66 1.05 1.31 1.54 1.85 2.09 2.31 2.53 2.88 3.11 3.52 3.25 2.61 2.24 1.96 1.68 1.38 1.35 1.25 1.23 1.34 1.56 1.72 1.88 2.02 2.12 1.94 1.82 1.60 1.81 2.07 2.18 1.97 2.15 2.15 2.15
0.00 0.01 0.02 0.03 0.02 0.03 0.08 0.13 0.37 0.48 0.58 0.65 0.63 0.92 1.38 1.87 2.07 2.30 2.60 3.00 3.30 3.73 3.73 3.84 4.19 3.54 2.77 2.24 1.90 1.57 1.29 1.31 1.33 1.36 1.38 1.57 1.74 1.82 1.88 1.81 1.75 1.68 1.78 1.98 2.00 1.97 2.22 2.31 2.26
0.00 0.04 0.11 0.10 0.06 0.06 0.11 0.26 0.47 0.61 0.63 0.85 0.91 1.14 1.68 2.32 2.32 2.61 2.91 3.40 3.86 4.31 4.42 4.45 4.66 4.23 3.62 3.04 2.45 1.91 1.61 1.39 1.44 1.50 1.35 1.35 1.50 1.55 1.64 1.66 1.61 1.65 1.67 1.69 1.68 1.74 1.94 1.94 1.88
0.01 0.09 0.24 0.19 0.09 0.09 0.17 0.58 0.75 0.67 0.65 0.94 1.16 1.39 1.85 2.50 2.56 2.87 3.33 3.87 4.56 4.98 5.19 5.21 4.96 4.76 4.23 3.58 2.99 2.55 2.21 1.90 1.65 1.53 1.37 1.19 1.27 1.30 1.38 1.30 1.32 1.34 1.34 1.33 1.42 1.47 1.64 1.77 1.85
0.03 0.09 0.21 0.20 0.14 0.12 0.21 0.65 0.70 0.47 0.63 0.92 1.23 1.53 1.82 2.16 2.65 3.22 3.72 4.30 5.23 6.16 6.57 6.32 5.62 5.10 4.51 3.88 3.36 3.12 2.86 2.44 2.01 1.82 1.62 1.41 1.25 1.20 1.23 1.24 1.26 1.08 1.11 1.13 1.07 1.25 1.48 1.68 1.74
0.03 0.07 0.15 0.22 0.17 0.22 0.32 0.42 0.54 0.60 0.77 0.99 1.21 1.38 1.66 1.96 2.37 3.06 3.64 4.32 5.30 6.49 7.16 7.03 6.34 5.42 4.67 4.22 3.71 3.45 3.11 2.66 2.16 1.91 1.77 1.55 1.42 1.23 1.14 1.07 1.04 0.91 1.02 1.14 1.20 1.47 1.48 1.43 1.47
0.03 0.06 0.14 0.22 0.17 0.25 0.32 0.43 0.58 0.75 0.98 1.02 1.10 1.21 1.43 1.73 2.13 2.80 3.48 4.06 4.72 5.45 5.99 5.85 5.21 4.68 4.07 3.52 2.93 2.75 2.46 2.20 1.94 1.73 1.53 1.49 1.41 1.21 1.15 1.04 1.14 0.96 0.97 0.99 0.99 1.14 1.22 1.17 1.19
0.04 0.07 0.13 0.18 0.14 0.14 0.26 0.52 0.67 0.76 0.93 0.89 0.91 0.94 1.13 1.48 2.09 2.87 3.49 3.69 3.69 3.94 4.18 3.69 3.47 3.42 3.00 2.66 2.53 2.36 2.12 1.87 1.65 1.53 1.47 1.24 1.18 1.12 1.05 1.12 1.06 1.00 1.04 0.99 1.00 1.12 1.17 1.15 1.14
0.07 0.09 0.09 0.15 0.16 0.22 0.36 0.69 0.90 0.83 0.82 0.71 0.70 0.91 1.38 1.77 2.21 2.72 2.89 2.90 2.79 2.75 2.73 2.49 2.41 2.67 2.57 2.49 2.38 2.30 2.19 2.06 1.79 1.48 1.41 1.17 1.01 0.99 1.03 1.04 1.07 1.08 0.92 0.99 1.05 1.01 1.06 1.09 1.04
0.07 0.06 0.04 0.04 0.12 0.34 0.50 0.91 1.07 0.99 0.92 0.65 0.69 1.08 1.58 1.90 2.17 2.16 1.77 1.66 1.80 1.87 1.96 2.18 2.25 2.33 2.22 2.23 2.01 1.80 1.62 1.46 1.34 1.28 1.26 1.25 1.09 0.99 0.92 0.95 1.08 1.08 0.95 1.08 0.83 0.88 1.03 1.08 0.94
0.04 0.04 0.03 0.05 0.15 0.39 0.65 1.06 1.25 1.03 0.84 0.60 0.57 0.66 1.04 1.25 1.23 1.03 0.89 0.97 1.20 1.44 1.66 2.02 2.10 2.10 1.98 1.91 1.88 1.87 1.75 1.68 1.53 1.46 1.50 1.47 1.43 1.25 1.01 0.95 1.07 1.14 1.09 1.12 1.02 1.15 1.02 0.93 0.86
0.03 0.04 0.10 0.20 0.37 0.82 0.86 0.95 1.18 0.99 0.78 0.60 0.41 0.45 0.70 0.74 0.59 0.61 0.70 0.89 1.12 1.29 1.39 1.58 1.74 1.91 1.96 1.97 1.99 1.91 1.84 1.85 1.67 1.51 1.42 1.39 1.39 1.30 1.21 1.12 1.23 1.24 1.18 1.18 1.10 1.14 1.10 1.04 1.00
0.03 0.05 0.25 0.60 0.89 1.01 0.72 0.87 1.16 0.78 0.52 0.40 0.28 0.26 0.29 0.34 0.43 0.60 0.66 0.86 0.97 1.08 1.10 1.19 1.31 1.51 1.63 1.72 1.83 1.85 1.84 1.84 1.65 1.52 1.39 1.34 1.23 1.14 1.20 1.24 1.33 1.26 1.25 1.18 1.16 1.17 1.18 1.24 1.24
0.04 0.03 0.10 0.21 0.33 0.52 0.68 1.07 1.15 0.75 0.40 0.24 0.19 0.19 0.18 0.23 0.29 0.34 0.38 0.48 0.62 0.79 0.98 1.12 1.16 1.17 1.20 1.26 1.45 1.62 1.63 1.64 1.57 1.57 1.36 1.27 1.19 1.15 1.24 1.31 1.22 1.17 1.16 1.11 1.17 1.07 1.04 1.11 1.17
0.03 0.03 0.04 0.05 0.08 0.31 0.73 1.01 0.92 0.58 0.40 0.28 0.24 0.24 0.21 0.21 0.28 0.25 0.25 0.31 0.41 0.46 0.61 0.83 0.91 0.92 0.94 1.01 1.15 1.25 1.30 1.40 1.49 1.44 1.29 1.14 1.15 1.17 1.19 1.13 1.09 1.11 1.12 1.17 1.23 1.16 1.10 1.14 1.04
0.04 0.03 0.03 0.05 0.10 0.23 0.56 1.03 1.17 0.80 0.55 0.39 0.32 0.25 0.21 0.22 0.23 0.26 0.27 0.27 0.29 0.32 0.45 0.62 0.76 0.79 0.82 0.87 0.93 0.93 1.06 1.16 1.28 1.29 1.24 1.11 1.06 1.14 1.17 1.13 1.09 1.08 1.01 1.04 1.17 1.14 1.16 1.22 1.19
0.05 0.04 0.05 0.06 0.07 0.15 0.41 0.66 0.65 0.68 0.53 0.34 0.31 0.26 0.21 0.22 0.25 0.30 0.25 0.29 0.26 0.25 0.33 0.45 0.62 0.71 0.67 0.71 0.78 0.87 0.96 1.12 1.19 1.16 1.18 1.13 1.10 1.13 1.15 1.14 1.15 1.11 1.06 1.07 1.13 1.09 1.16 1.23 1.33
0.07 0.07 0.07 0.08 0.08 0.11 0.20 0.34 0.38 0.40 0.43 0.47 0.39 0.33 0.33 0.34 0.27 0.28 0.23 0.26 0.20 0.22 0.28 0.37 0.45 0.53 0.57 0.64 0.74 0.81 0.87 1.00 1.12 1.09 1.13 1.21 1.18 1.16 1.12 1.10 1.16 1.09 1.07 1.11 1.05 1.04 1.13 1.24 1.31